TIBA-1

Last updated on Jan. 23, 2021, 7:16 a.m. UTC

1 44800U 19080A   21022.92945059  .00000168  00000-0  00000-0 0  9999
2 44800   0.0500  18.5803 0002366 289.8357 184.1187  1.00271024  4299
UTC
Height (km)
Latitude
Longitude
Inclination
Orbital Period
UTC large
Height (km)
Speed (km/s)
/
Latitude / Longitude
Inclination (degrees)
Orbital Period (minutes)
Azimuth
Elevation
Range (km)
Doppler Factor
iOS Compass Heading
iOS Angle

Next 30 passes for location: Hong Kong

Rise time Rise Azimuth (degrees) Set time Set Azimuth (degrees) Duration Max altitude (degrees)

No matching passes for this satellites